FW1577 Weather Reports


Display with metric or nautical units.
time (UTC)temp
F
wind
direction
speed
MPH
gust
MPH
rain 1hr
in
rain 24hr
in
rain mn
in
humidity
%
barometer
mb
20260905164513 50 244 2.0 6.0 0.00 0.34 0.01 94 981.4
20260905163013 50 269 2.0 6.0 0.00 0.34 0.01 94 981.3
20260905161510 50 231 0.0 8.0 0.00 0.34 0.01 94 981.2
20260905160008 50 292 5.0 14.0 0.01 0.34 0.01 93 980.9
20260905154506 50 236 1.0 11.0 0.01 0.39 0.01 93 980.7
20260905153004 50 310 4.0 11.0 0.01 0.39 0.01 94 980.5
20260905151501 49 286 1.0 5.0 0.01 0.39 0.01 95 980.3
20260905150058 49 293 1.0 7.0 0.00 0.39 0.00 95 980.1
20260905144559 49 293 5.0 12.0 0.00 0.45 0.00 95 979.8
20260905143053 48 231 0.0 5.0 0.00 0.45 0.00 95 979.5
20260905141551 49 274 1.0 3.0 0.00 0.45 0.00 93 979.3
20260905140048 49 246 0.0 3.0 0.00 0.45 0.00 92 979.2
20260905134557 49 268 1.0 3.0 0.00 0.48 0.45 90 979.0
20260905133054 49 243 0.0 6.0 0.00 0.48 0.45 91 979.0
20260905131549 49 233 0.0 1.0 0.00 0.48 0.45 90 978.7
20260905130045 49 233 0.0 3.0 0.00 0.48 0.45 88 978.5
20260905124545 50 261 0.0 4.0 0.00 0.48 0.45 87 978.3
20260905123044 49 233 0.0 4.0 0.00 0.48 0.45 88 978.2
20260905121543 49 234 1.0 7.0 0.00 0.48 0.45 88 978.1
20260905120044 49 221 1.0 5.0 0.00 0.48 0.45 89 978.1
20260905114542 49 152 0.0 2.0 0.00 0.48 0.45 92 977.9
20260905113042 49 242 0.0 1.0 0.00 0.48 0.45 93 977.7
20260905111542 49 285 0.0 2.0 0.00 0.48 0.45 94 977.3
20260905110050 48 200 0.0 3.0 0.00 0.48 0.45 94 977.1
20260905104540 48 199 0.0 1.0 0.00 0.48 0.45 94 977.0
20260905103045 49 256 1.0 4.0 0.00 0.48 0.45 92 977.2
20260905101553 49 206 2.0 8.0 0.00 0.48 0.45 91 976.5
20260905100039 48 95 2.0 5.0 0.00 0.48 0.45 96 976.5
20260905094538 47 262 0.0 1.0 0.00 0.48 0.45 95 976.4
20260905093037 48 177 0.0 0.0 0.00 0.48 0.45 95 975.9
20260905091538 48 141 1.0 3.0 0.06 0.48 0.45 94 975.6
20260905090036 48 98 2.0 5.0 0.12 0.48 0.45 93 975.4
20260905084536 48 88 1.0 3.0 0.12 0.48 0.45 92 975.1
20260905083033 49 173 0.0 7.0 0.12 0.48 0.45 90 974.8
20260905081532 50 260 4.0 21.0 0.06 0.42 0.39 87 975.3
20260905080025 54 244 0.0 7.0 0.00 0.36 0.33 83 974.2
20260905074531 54 244 0.0 9.0 0.00 0.36 0.33 83 973.9
20260905073025 56 214 1.0 8.0 0.00 0.36 0.33 79 973.6
20260905071524 57 309 1.0 5.0 0.00 0.36 0.33 76 973.3
20260905070023 58 269 1.0 7.0 0.00 0.36 0.33 73 973.4
20260905064523 57 95 0.0 8.0 0.00 0.36 0.33 74 973.2
20260905063023 59 296 3.0 12.0 0.00 0.36 0.33 68 973.0
20260905061522 60 261 2.0 11.0 0.00 0.36 0.33 68 972.9
20260905060021 59 114 3.0 7.0 0.00 0.36 0.33 68 972.9
20260905054530 60 255 4.0 12.0 0.00 0.36 0.33 66 973.0
20260905053018 60 248 3.0 15.0 0.00 0.36 0.33 67 972.8
20260905051516 61 281 1.0 9.0 0.00 0.36 0.33 68 972.7
20260905050014 60 268 5.0 13.0 0.00 0.36 0.33 67 972.6
20260905044516 61 308 7.0 16.0 0.00 0.36 0.33 68 972.4
20260905043014 61 276 6.0 15.0 0.00 0.36 0.33 69 972.1
20260905041511 61 210 4.0 13.0 0.00 0.36 0.33 70 972.1
20260905040007 60 292 4.0 14.0 0.00 0.36 0.33 73 971.9
20260905034505 60 237 2.0 17.0 0.00 0.36 0.33 76 971.9
20260905033004 59 259 1.0 8.0 0.00 0.36 0.33 78 972.1
20260905031501 58 226 3.0 13.0 0.00 0.36 0.33 79 972.0
20260905030104 57 256 1.0 9.0 0.00 0.36 0.33 84 972.1
20260905024603 59 313 2.0 17.0 0.00 0.36 0.33 84 972.4
20260905023056 59 75 4.0 18.0 0.00 0.36 0.33 83 972.5
20260905021555 59 15 2.0 12.0 0.00 0.36 0.33 85 972.5
20260905020050 58 267 4.0 14.0 0.00 0.36 0.33 86 972.6
20260905014548 58 323 3.0 14.0 0.00 0.36 0.33 87 973.4
20260905013049 58 278 5.0 14.0 0.00 0.36 0.33 88 973.3
20260905011544 57 324 6.0 13.0 0.00 0.36 0.33 89 973.2
20260905010045 57 300 2.0 10.0 0.00 0.36 0.33 91 973.2
20260905004544 56 262 3.0 11.0 0.00 0.36 0.33 92 973.2
20260905003045 56 357 3.0 7.0 0.00 0.36 0.33 92 973.1
20260905001538 56 127 2.0 10.0 0.00 0.36 0.33 93 973.6
20260905000037 56 335 1.0 8.0 0.00 0.36 0.33 93 973.8
20260904234536 56 117 5.0 13.0 0.00 0.36 0.33 93 973.7
20260904233033 55 65 5.0 12.0 0.00 0.36 0.33 93 973.9
20260904231536 55 131 0.0 8.0 0.00 0.36 0.33 94 974.0
20260904230056 55 134 4.0 8.0 0.00 0.36 0.33 94 974.5
20260904224531 55 82 3.0 5.0 0.00 0.36 0.33 95 974.4
20260904223027 54 118 0.0 5.0 0.00 0.36 0.33 96 974.3
20260904221526 54 136 3.0 7.0 0.00 0.36 0.33 96 974.2
20260904220023 54 124 4.0 9.0 0.02 0.36 0.33 96 975.3
20260904214523 54 129 2.0 4.0 0.02 0.36 0.33 96 974.8
20260904213020 53 90 3.0 8.0 0.02 0.36 0.33 96 974.6
20260904211517 53 132 0.0 3.0 0.03 0.36 0.33 95 975.3
20260904210016 54 312 2.0 8.0 0.02 0.35 0.31 93 975.3
20260904204515 54 57 2.0 10.0 0.02 0.34 0.31 94 974.8
20260904203013 54 102 2.0 7.0 0.02 0.34 0.31 94 974.8
20260904201510 54 117 3.0 8.0 0.01 0.33 0.30 94 975.2
20260904200012 54 99 0.0 2.0 0.03 0.32 0.28 94 975.6
20260904194509 54 141 0.0 4.0 0.04 0.32 0.28 94 975.2
20260904193017 54 130 1.0 3.0 0.04 0.32 0.28 95 975.5
20260904191507 54 120 0.0 1.0 0.05 0.32 0.28 94 975.8
20260904190010 54 126 0.0 2.0 0.02 0.28 0.26 92 975.3
20260904184506 54 121 1.0 4.0 0.06 0.28 0.25 92 975.5
20260904183005 54 121 1.0 6.0 0.09 0.28 0.25 93 975.3
20260904181503 54 122 0.0 6.0 0.09 0.28 0.24 93 975.9
20260904180108 54 119 5.0 10.0 0.09 0.28 0.24 94 976.0
20260904174557 54 101 4.0 6.0 0.06 0.23 0.20 96 976.5
20260904173059 54 124 0.0 2.0 0.03 0.19 0.16 95 977.1
20260904171554 54 95 2.0 5.0 0.04 0.19 0.16 95 976.9
20260904170053 54 154 0.0 5.0 0.04 0.19 0.16 95 977.6